Theta_e
313 314 313 314 314 315 315 315 315 316 316 315 315 314 313 312 313 316 317 311 308 310 311 310 310 309 308 308 307 305 304 305 306 306 306 305 305 306 306 306 306 305 305 305 306 308 308 307 306 305 304 304 304 304 303 302 302 301 300 299 299 298 298 298 298 298 299 299 300 301 302 303 304 304
314 313 314 314 314 315 315 315 316 316 316 316 316 315 313 311 311 315 319 316 310 308 309 309 309 308 307 306 306 305 305 306 306 306 306 305 305 306 306 306 306 306 306 305 307 308 308 308 307 305 304 303 303 303 303 303 303 302 300 300 299 299 298 298 298 298 297 297 298 298 298 299 299 300
315 313 313 313 314 315 315 315 316 316 316 316 316 316 315 313 311 311 314 317 313 308 308 308 308 307 306 306 306 306 306 307 306 305 306 306 305 306 307 307 307 307 306 306 308 308 308 308 307 305 303 303 303 303 303 303 303 302 300 300 300 300 299 298 297 297 297 297 297 297 298 297 297 298
315 314 315 315 315 315 316 316 316 316 316 316 316 316 316 314 313 311 312 314 312 309 308 308 308 308 307 306 307 307 308 308 307 306 306 306 305 306 307 307 307 308 308 308 308 308 308 308 307 305 304 304 303 303 303 303 303 302 301 301 302 300 299 297 297 297 297 297 297 297 297 297 297 297
315 316 316 317 316 316 316 316 316 315 315 315 315 316 316 315 314 313 312 311 311 310 309 308 308 308 307 307 307 308 308 308 308 307 306 306 306 306 307 308 308 308 308 308 308 308 308 308 306 306 305 305 304 304 303 304 303 303 302 302 302 300 299 298 298 297 297 297 297 297 297 297 297 297
316 316 316 316 316 316 316 315 315 315 314 315 315 316 316 316 315 315 314 312 311 310 309 309 308 309 308 308 307 308 309 309 309 309 307 306 306 306 308 309 309 308 308 308 308 307 308 308 306 305 305 305 305 304 304 304 303 303 303 303 302 301 300 299 299 298 297 297 297 297 297 297 297 297
316 315 315 316 315 315 315 314 314 314 315 315 315 315 315 315 315 315 314 313 312 310 310 309 309 310 310 309 308 308 309 309 309 309 309 307 307 308 309 309 309 308 309 308 308 307 308 307 306 305 306 306 305 305 304 304 304 303 303 303 303 302 301 301 300 299 299 298 298 297 297 297 297 296
314 314 314 314 314 315 315 314 313 313 314 315 315 315 315 315 315 314 314 314 313 312 311 310 309 310 310 310 310 308 309 309 309 309 309 309 309 310 310 310 309 309 309 309 308 307 307 307 306 306 306 305 305 305 304 303 304 304 303 302 303 303 303 302 302 301 300 299 299 298 297 296 296 296
314 313 313 312 312 313 314 314 314 313 314 315 315 315 314 314 314 314 315 314 314 313 312 311 310 310 311 311 310 309 310 310 309 309 310 310 311 310 310 310 309 309 308 308 308 307 307 307 306 306 306 306 306 305 303 303 304 304 303 303 303 303 303 303 302 302 301 300 300 299 298 297 297 296
313 314 315 314 313 313 314 315 315 315 315 315 316 315 314 314 314 315 315 315 314 314 314 312 311 311 312 313 312 311 311 311 310 310 311 311 311 311 310 310 309 309 308 308 308 307 307 307 306 306 306 305 304 303 303 304 304 304 304 303 303 303 303 303 303 302 301 301 300 299 298 298 297 296
315 315 316 316 316 316 316 317 317 316 315 316 316 316 315 314 314 315 315 316 315 315 315 313 313 313 313 314 313 313 312 311 311 311 312 311 311 310 310 310 309 308 308 308 308 308 307 307 306 306 304 303 303 303 304 304 303 303 303 303 303 303 303 303 302 302 301 300 300 299 298 297 297 296
316 317 317 317 317 317 317 318 318 317 317 316 316 317 316 315 315 314 314 315 315 315 315 314 314 314 314 314 313 313 312 312 312 312 311 311 311 310 309 309 308 308 308 308 308 308 307 306 305 304 302 302 303 303 304 303 303 303 303 303 303 303 303 303 302 302 301 300 300 299 298 297 296 295
317 317 318 318 318 318 318 318 318 317 317 317 317 317 317 316 316 315 315 314 314 314 314 314 315 315 314 314 314 313 313 312 312 311 311 310 310 309 309 308 308 308 308 307 307 307 305 304 303 302 302 303 303 303 303 303 303 302 302 302 302 302 302 302 302 301 301 300 300 299 299 297 297 296
318 318 319 318 318 319 318 318 318 317 317 317 317 317 317 316 316 316 315 315 314 314 314 315 315 314 313 313 314 313 312 311 311 310 310 309 308 308 308 308 307 307 307 306 305 304 303 303 303 303 303 302 302 303 303 303 302 302 302 302 301 301 301 301 301 301 300 300 300 300 299 297 297 297
319 319 319 319 318 319 319 318 318 318 317 317 316 316 316 316 315 316 316 316 315 315 314 314 314 313 313 312 312 311 311 310 309 308 307 307 307 307 307 307 306 306 305 304 303 303 302 302 303 303 302 301 301 303 303 303 302 301 301 301 301 300 300 300 301 300 300 300 300 300 299 298 297 297
320 320 320 319 318 318 318 318 318 317 317 317 317 316 316 316 315 315 315 315 315 315 315 314 313 312 312 311 310 310 310 308 307 307 306 306 306 305 305 304 304 304 303 302 302 302 302 301 302 302 301 301 301 301 302 302 301 300 300 300 300 300 300 300 300 300 300 300 299 299 299 298 297 297
320 320 319 319 318 318 318 317 317 317 317 317 317 316 316 316 316 315 314 314 314 314 314 312 312 312 312 311 310 310 308 307 306 306 305 304 304 303 303 302 302 302 301 301 301 302 301 301 301 301 300 300 301 301 301 300 300 299 299 299 299 300 300 300 300 299 299 299 298 298 298 298 297 297
321 320 320 319 319 318 317 316 316 316 317 318 318 316 315 315 316 316 315 314 313 312 311 310 309 310 311 310 310 309 307 306 304 304 303 303 302 301 301 300 300 300 300 300 300 301 300 300 300 300 300 300 300 300 299 299 299 299 298 298 298 299 299 298 298 298 298 298 298 298 298 298 297 297
319 318 318 318 317 317 317 316 314 314 315 318 318 317 316 316 316 315 315 314 313 311 310 309 308 308 309 309 309 307 305 303 303 302 302 302 301 300 300 299 299 299 299 299 300 300 300 300 299 299 298 298 298 298 298 298 298 298 298 298 297 297 297 297 297 297 297 297 297 298 298 298 298 297
315 314 315 316 315 316 316 314 312 312 315 317 317 317 317 316 314 314 313 312 312 311 309 309 308 308 308 308 306 304 302 302 302 302 301 301 300 299 299 299 299 299 299 299 300 299 299 299 298 298 298 297 297 297 297 297 297 297 297 297 297 297 296 296 296 296 296 297 297 297 297 298 298 297
316 316 315 315 315 315 314 312 311 314 316 317 317 317 315 313 312 311 310 309 309 309 308 308 308 307 306 304 303 302 302 302 301 301 300 300 299 299 299 299 299 299 299 299 299 298 298 297 297 297 297 297 297 296 297 297 297 297 297 296 296 296 296 295 295 295 296 296 296 296 297 297 298 297
318 318 317 316 316 315 314 312 313 315 316 316 316 315 312 311 310 309 308 307 307 307 307 306 305 304 303 303 302 302 302 301 301 301 300 300 299 299 299 299 299 299 299 299 298 297 297 297 296 296 296 296 296 296 296 296 296 296 296 295 295 295 295 295 295 295 295 295 295 295 296 296 296 296
316 317 317 316 314 315 315 314 314 315 315 316 316 314 311 310 310 308 307 306 306 305 305 304 304 303 303 302 302 302 301 302 302 301 301 300 299 299 300 299 298 298 298 297 297 296 296 296 296 296 295 295 295 295 295 295 295 294 294 294 294 294 294 294 294 294 294 294 295 295 295 295 295 295
314 315 315 314 314 315 315 315 314 314 314 315 315 313 311 310 309 307 305 305 305 304 304 303 303 303 303 302 302 302 302 302 302 302 301 300 300 300 300 299 298 297 297 296 296 296 296 295 295 295 295 294 294 295 294 294 294 294 293 293 293 293 293 293 293 294 294 294 294 294 294 294 294 294
314 314 314 314 314 314 314 313 312 311 313 314 314 313 311 310 309 307 306 305 305 304 303 303 303 303 303 302 302 302 302 303 303 302 300 298 298 298 298 298 297 296 296 295 295 295 295 295 295 295 294 294 294 294 294 294 294 294 294 293 293 293 293 293 293 294 294 294 294 294 294 294 294 294
313 313 312 312 312 312 311 310 309 309 312 314 313 312 311 310 309 308 307 306 305 303 302 302 302 302 301 301 300 300 300 301 301 299 298 297 297 297 297 296 296 295 295 294 294 294 294 294 294 294 294 294 294 294 294 293 293 293 293 293 293 293 293 293 293 293 294 294 294 294 294 294 293 293
313 312 311 310 310 309 308 308 308 309 311 312 311 310 310 309 308 307 306 304 303 302 302 301 301 301 300 299 299 299 298 298 298 297 297 297 296 296 296 296 295 294 294 294 294 294 293 293 293 293 293 293 293 293 293 293 293 293 293 293 293 293 293 293 293 293 294 294 294 294 294 294 293 293
312 311 310 309 309 307 306 306 307 308 309 309 309 308 308 308 307 306 304 303 302 302 302 301 300 300 299 299 298 298 297 297 297 297 297 296 296 296 295 295 294 294 294 293 293 293 293 293 293 293 293 293 293 293 293 293 293 293 293 293 293 293 293 293 293 293 293 294 294 294 294 294 293 293
310 309 310 310 309 306 304 304 304 305 305 305 305 305 305 304 304 303 302 302 301 301 300 300 299 298 298 298 298 297 297 297 297 296 296 295 295 295 295 295 294 294 293 293 293 293 293 293 293 293 293 293 293 293 293 293 293 293 293 293 293 293 293 293 293 293 293 294 294 293 293 293 293 293
308 308 309 309 306 304 303 303 303 303 303 303 302 301 301 301 301 301 301 301 301 300 299 298 298 297 297 297 297 296 297 296 296 295 295 294 294 294 294 294 293 293 292 292 292 292 293 293 293 293 293 293 293 293 293 293 293 293 293 293 293 293 293 293 293 293 293 293 293 293 293 293 293 293
306 306 306 305 304 303 303 302 302 302 302 301 300 299 299 300 300 300 300 300 300 299 298 298 297 297 297 296 296 296 296 296 295 294 294 294 293 293 293 292 292 292 292 292 292 292 292 292 292 292 292 293 293 293 293 293 293 293 293 293 293 293 293 293 293 293 293 293 293 293 293 293 293 293
304 303 303 303 302 302 301 301 301 301 301 299 299 299 299 300 300 300 300 299 298 298 297 297 297 296 296 296 295 295 295 294 294 294 293 293 292 292 292 292 292 292 292 292 292 291 291 291 292 292 292 292 292 293 293 293 293 293 293 293 293 293 293 293 293 293 293 293 292 292 292 292 292 292
303 300 300 300 299 299 300 300 300 299 298 297 298 298 299 300 300 299 298 298 297 297 297 297 296 295 295 295 295 295 294 294 293 293 293 292 292 292 292 292 292 291 291 291 291 291 291 291 291 291 291 292 292 292 292 292 292 292 293 293 293 293 293 293 293 293 292 292 292 292 291 291 291 291
302 299 298 298 298 299 299 299 299 298 298 298 298 299 299 299 299 298 297 297 297 296 296 295 295 295 295 294 294 294 294 293 293 292 292 292 292 292 291 291 291 291 291 291 291 291 291 291 291 291 291 291 291 291 292 292 292 292 292 293 293 293 293 292 292 292 292 292 292 291 291 291 291 291
299 297 297 298 299 300 300 300 299 299 298 299 299 299 299 299 298 297 296 296 296 295 294 294 294 294 294 294 294 293 293 293 292 292 292 292 291 291 291 291 291 291 290 290 290 290 290 290 290 291 291 291 291 291 292 292 292 292 292 292 292 292 292 292 292 292 292 292 292 291 291 291 291 291
297 297 298 298 299 300 300 300 299 298 298 299 299 298 297 297 297 296 295 295 294 294 294 294 294 294 294 294 293 293 293 292 292 292 292 292 291 291 291 291 291 290 290 290 290 290 290 290 290 291 291 291 291 291 291 292 292 292 292 291 291 291 291 292 292 292 292 292 292 291 291 291 291 291
297 298 300 299 299 300 300 298 297 297 298 299 298 297 297 296 296 295 294 294 294 294 294 294 294 294 293 293 293 293 292 292 292 292 292 291 291 291 290 290 290 290 290 290 290 290 290 290 291 290 290 291 291 291 291 291 291 291 291 291 291 291 292 292 292 292 292 292 292 291 291 291 291 291
296 297 298 298 299 299 298 297 297 298 299 299 298 297 297 296 295 294 294 294 294 294 294 294 294 293 293 293 293 293 292 292 292 291 291 291 290 290 289 289 289 290 290 290 290 290 290 290 290 290 291 291 291 291 291 291 290 291 291 291 291 291 292 292 292 292 292 292 291 291 291 291 291 291
297 296 297 297 298 298 298 297 298 299 299 299 298 297 296 295 295 294 294 294 294 293 293 293 293 293 293 293 293 292 292 292 291 291 290 290 289 289 289 289 290 290 290 290 290 290 290 290 290 290 290 291 291 291 291 290 290 291 292 292 291 291 292 292 292 292 292 291 291 291 291 291 291 291
297 296 296 297 297 298 298 298 298 298 298 298 297 297 296 295 294 294 294 293 293 293 293 293 293 293 293 292 292 292 292 291 291 290 290 289 289 289 289 290 290 290 290 290 290 290 290 290 290 290 291 291 291 291 290 290 290 291 292 292 291 291 292 292 292 292 292 291 291 290 290 290 290 290
297 297 297 297 297 298 298 298 298 297 297 297 296 295 295 294 293 293 293 293 292 293 293 293 293 292 292 292 292 292 291 290 290 290 289 289 289 290 290 290 290 290 290 290 290 290 290 290 291 291 291 291 291 290 290 290 291 291 292 292 292 292 292 292 292 292 291 290 290 289 289 289 289 289
297 297 298 298 298 298 298 298 298 297 297 297 296 294 293 293 293 293 293 292 293 293 293 292 292 292 292 291 291 291 291 290 290 290 289 289 290 290 290 290 290 290 290 290 290 290 291 291 291 291 291 291 291 290 290 290 291 291 291 292 292 292 292 292 292 291 290 289 289 289 288 288 288 289
297 297 298 298 298 298 298 298 298 298 297 296 295 294 293 293 292 292 292 293 293 293 292 292 292 292 291 291 291 290 290 290 290 289 289 290 290 290 290 290 290 290 290 290 290 291 291 291 291 291 291 291 291 290 290 290 291 291 291 292 292 292 292 291 291 290 289 289 289 289 288 287 288 288
298 298 298 298 298 298 298 298 298 297 296 295 294 293 293 292 292 291 292 293 293 292 292 292 292 291 290 290 290 290 290 290 290 289 289 290 290 290 290 290 290 290 290 290 290 291 291 291 291 291 291 291 291 290 290 291 291 291 291 292 292 292 292 291 291 290 289 289 289 289 289 288 288 288
298 297 297 297 297 298 298 298 297 296 295 294 294 293 292 292 292 292 292 292 292 292 292 292 291 290 290 290 290 290 290 290 290 290 290 290 290 290 290 290 290 290 291 291 291 291 291 291 291 291 291 291 291 291 291 291 291 291 292 292 293 292 292 291 290 289 289 289 289 289 289 289 289 288
Wind_Speed
15 14 14 15 16 16 18 20 19 19 19 16 14 17 25 21 9 3 3 3 6 10 11 9 7 5 6 6 6 6 8 9 10 10 11 10 11 13 14 14 15 15 16 16 18 20 21 20 21 19 18 18 18 18 18 17 17 16 16 15 15 14 14 14 13 13 13 13 13 13 14 14 14 14
14 13 13 14 15 16 17 18 18 18 16 17 16 12 20 26 18 11 6 2 5 10 10 9 10 8 6 5 5 5 6 7 8 8 8 8 8 10 11 12 12 12 12 13 15 18 19 21 22 18 16 18 19 18 18 18 17 17 16 16 16 16 16 16 15 15 15 14 14 14 14 14 14 15
14 13 12 13 14 14 15 15 17 16 14 13 14 13 13 21 22 21 14 4 4 10 11 10 10 9 8 6 5 5 4 5 6 5 5 5 5 7 9 9 10 10 11 12 14 16 16 19 21 18 16 19 20 20 20 19 18 17 17 17 18 18 17 17 17 17 17 17 16 16 15 14 14 14
15 15 15 14 14 13 14 15 16 16 14 12 12 13 14 17 21 21 18 10 6 9 11 11 10 9 8 7 3 4 4 3 3 3 3 3 3 4 6 8 9 10 12 13 14 15 16 17 19 18 17 19 21 21 21 20 19 17 17 19 20 19 17 17 18 19 19 19 19 18 17 16 16 15
17 16 16 15 14 13 13 13 12 12 11 10 12 15 16 17 15 15 18 16 10 9 10 10 10 8 6 8 5 2 3 2 1 2 4 4 3 4 5 8 9 9 11 13 15 16 16 16 16 17 17 18 20 21 21 19 18 17 17 19 21 18 16 18 20 20 20 21 21 20 20 19 18 17
15 15 16 15 13 12 12 11 9 9 7 7 10 15 16 16 13 13 17 18 13 10 11 10 9 7 7 8 7 2 2 3 2 2 5 7 5 3 5 9 10 10 11 14 16 17 17 15 14 15 17 18 19 21 22 21 18 16 15 18 19 17 16 19 22 22 23 24 24 23 22 21 20 19
13 13 14 13 11 10 10 10 10 10 9 7 10 14 13 13 13 12 13 14 13 13 12 10 9 7 7 7 7 5 2 2 2 2 2 3 2 3 7 10 11 11 12 15 17 18 17 13 12 14 17 19 20 22 24 24 21 18 15 15 17 16 15 19 22 24 25 27 27 26 25 24 23 22
11 10 11 10 10 9 9 9 8 8 8 8 9 11 9 9 10 11 11 10 10 12 13 12 12 9 6 6 7 8 5 2 1 1 4 6 6 8 8 9 10 11 13 14 15 17 15 12 12 16 18 20 21 23 27 26 24 21 17 14 15 16 16 18 20 23 25 28 30 29 27 25 24 23
10 8 8 8 8 8 8 8 6 5 5 7 8 7 7 6 8 10 11 10 9 10 12 12 13 11 7 6 6 8 6 4 4 3 4 7 5 5 5 6 8 11 13 13 13 14 13 12 14 17 20 22 25 28 29 25 22 21 17 14 15 16 16 18 19 21 23 26 29 30 29 27 24 23
9 8 7 6 6 8 8 7 6 5 5 6 8 8 7 8 8 8 8 7 8 8 10 12 13 12 9 6 5 7 6 5 7 7 6 4 1 2 3 4 6 10 10 9 10 12 12 11 14 18 23 27 30 29 24 20 19 18 16 15 16 16 17 18 19 20 22 25 28 31 31 28 25 23
10 10 9 8 6 7 8 7 6 6 6 5 5 7 8 8 8 7 5 5 5 6 8 11 11 10 8 6 5 6 6 5 7 8 4 2 2 4 5 6 7 8 6 6 9 11 11 12 16 22 26 27 25 21 18 18 19 18 17 17 17 17 17 18 19 20 22 24 28 32 31 27 23 21
12 11 12 11 10 9 10 8 7 6 6 5 3 4 6 7 7 5 4 4 3 3 3 5 6 6 7 8 9 10 8 7 7 6 6 4 3 4 5 6 8 7 7 9 11 13 16 19 22 23 22 19 17 16 17 18 18 18 18 18 18 18 19 19 19 20 22 25 29 31 28 24 22 20
15 14 14 14 13 12 12 11 9 8 7 7 6 4 4 5 5 4 4 5 3 2 2 2 2 4 5 5 9 11 10 8 6 5 4 3 3 5 6 6 7 8 10 13 16 19 21 21 20 19 18 17 16 15 15 16 18 20 21 21 20 20 19 19 19 20 22 25 28 29 25 22 21 20
17 17 16 16 15 13 14 13 12 11 10 9 9 8 7 6 6 6 6 7 6 5 4 2 3 3 2 2 3 6 5 5 5 4 2 2 2 4 7 8 8 9 13 16 20 24 21 18 18 19 19 19 18 15 14 16 19 20 19 19 19 19 19 19 20 21 23 25 28 28 24 20 19 19
19 19 17 17 17 15 15 15 14 14 13 13 13 12 11 10 10 10 9 9 9 8 7 4 2 1 3 4 5 6 7 6 5 3 2 2 4 5 6 7 9 12 15 17 20 21 18 17 18 19 18 19 19 16 15 16 17 17 17 18 19 19 20 21 22 23 23 24 27 27 24 19 17 17
20 20 19 18 18 17 17 17 16 16 16 15 15 15 15 15 15 14 12 11 10 10 10 7 4 4 5 7 8 8 7 5 3 2 3 4 5 6 7 8 12 15 16 17 19 20 17 17 17 16 16 16 15 14 13 13 16 18 20 21 22 22 22 22 24 24 23 24 27 28 25 20 17 16
22 22 21 20 19 19 18 18 18 18 17 16 15 14 14 15 14 14 14 13 11 10 10 8 6 6 6 6 6 5 4 2 1 3 5 6 7 8 9 11 14 16 15 16 18 18 16 15 14 13 14 13 13 13 14 16 19 20 20 21 22 22 20 19 20 21 22 23 25 27 25 21 17 16
24 24 24 23 22 21 20 18 17 17 17 16 13 12 12 12 12 12 13 13 12 11 10 8 6 6 6 5 5 3 2 3 5 5 7 8 9 9 10 11 13 13 12 14 15 13 12 14 13 14 15 16 17 18 20 21 20 19 18 19 20 21 19 17 17 17 19 21 23 24 22 19 17 15
22 21 22 22 22 21 20 19 17 17 17 16 13 12 11 11 10 10 10 10 11 11 11 9 8 6 6 6 5 3 4 6 7 7 9 9 9 9 9 10 12 11 10 12 14 12 13 15 15 17 19 21 21 22 22 21 19 18 18 18 18 19 19 18 17 16 17 18 20 22 20 16 15 14
22 21 20 21 22 21 19 19 18 17 16 15 14 13 12 11 9 8 7 7 7 8 8 7 7 7 7 5 3 3 5 7 8 8 8 7 7 8 9 10 12 13 13 14 14 13 14 15 17 20 21 22 23 23 21 18 17 17 17 18 18 18 18 19 19 18 17 18 19 21 21 15 13 13
24 24 23 23 22 20 19 17 15 15 17 16 15 14 13 11 9 7 6 7 7 7 7 7 7 7 5 2 3 5 6 7 6 6 5 4 6 8 9 10 12 14 14 12 11 12 14 15 19 20 21 21 21 18 15 14 14 15 18 20 21 21 19 20 21 20 20 19 18 19 20 17 12 12
23 23 22 22 21 21 21 18 16 18 20 18 16 15 14 12 10 9 9 10 10 9 8 7 6 4 3 3 4 5 5 5 4 4 4 4 6 7 8 10 12 13 11 9 12 15 15 16 18 18 18 18 14 10 11 14 17 20 22 24 25 23 21 21 22 21 20 19 18 18 18 18 16 13
24 22 23 22 22 24 25 22 21 24 24 20 18 17 15 14 12 11 11 10 10 9 7 6 4 2 1 2 3 4 4 4 4 5 5 5 5 5 6 9 10 8 6 9 15 17 14 15 16 15 14 11 8 10 15 19 22 24 24 23 23 23 22 22 22 20 19 19 18 17 17 18 17 16
24 23 25 25 26 28 28 25 25 27 25 21 20 18 17 16 13 11 11 11 10 8 6 4 2 2 2 3 4 4 4 6 7 6 6 6 5 5 6 9 9 6 6 11 16 16 13 14 16 15 13 9 8 15 20 21 23 23 21 22 23 23 22 23 22 20 19 18 17 16 17 18 18 18
24 23 24 25 26 26 24 23 24 25 23 21 20 19 17 14 13 13 13 13 10 7 5 4 4 3 3 3 4 5 6 7 6 5 5 6 6 6 7 8 8 7 8 11 15 15 14 14 15 15 14 11 12 16 19 21 22 20 19 21 23 23 23 23 22 20 19 17 17 18 19 20 19 19
22 21 21 21 21 21 19 18 18 18 19 20 21 20 16 14 13 13 13 12 10 7 6 5 4 3 2 3 3 1 1 2 2 3 5 6 5 4 5 5 6 8 9 11 14 15 14 14 14 15 15 14 14 16 17 18 21 20 20 21 22 23 24 24 22 21 20 20 21 21 21 20 19 19
23 20 18 18 17 17 17 17 14 13 16 20 20 18 15 15 15 14 12 11 9 8 7 6 4 3 4 5 7 7 6 3 3 5 6 5 4 4 3 4 6 9 10 12 14 14 13 13 14 15 16 16 16 15 15 17 20 22 23 23 23 24 24 23 23 21 21 22 22 21 21 21 19 19
24 23 22 20 17 16 17 17 16 15 16 18 18 17 16 16 15 13 10 9 9 8 7 5 4 5 6 6 6 6 5 4 4 4 4 4 3 3 3 5 7 9 11 12 13 13 13 14 15 15 16 16 16 15 15 17 20 22 23 24 25 26 25 24 22 22 22 23 22 21 22 22 20 19
24 25 24 21 20 19 19 18 16 14 13 14 14 14 14 13 12 10 9 9 9 8 7 7 8 8 7 5 4 3 3 2 3 4 4 4 5 5 7 9 10 11 11 12 12 12 13 14 15 15 15 15 15 16 17 19 20 21 22 23 25 27 26 24 22 23 23 22 21 22 23 22 20 20
24 26 27 25 24 23 21 19 16 14 12 11 11 11 11 12 11 11 10 10 10 9 9 9 9 8 6 4 2 2 3 4 4 4 5 6 8 10 12 13 13 13 13 13 13 13 13 14 15 16 17 17 17 17 18 19 20 22 22 22 23 25 25 24 24 24 23 22 22 23 22 20 20 20
26 28 29 27 26 24 22 20 19 16 14 12 12 12 12 12 12 10 9 9 9 8 8 9 7 5 3 1 1 2 3 4 5 6 9 10 12 12 13 14 14 15 16 15 14 14 14 15 16 17 18 18 18 19 19 19 20 23 24 23 22 22 23 24 24 23 21 21 23 24 22 21 22 22
28 30 30 29 28 26 25 22 19 17 15 14 14 14 13 12 11 9 7 8 8 8 8 8 5 3 1 0 2 2 3 4 6 9 11 11 11 12 13 13 14 16 17 17 16 15 15 15 16 17 17 18 18 19 19 20 20 21 23 23 22 21 22 22 21 20 20 22 23 24 24 24 24 23
32 32 32 31 31 30 27 24 21 18 17 17 16 15 13 12 10 9 9 10 11 10 9 7 4 2 1 2 2 1 1 3 6 9 10 9 9 10 11 12 13 14 15 16 17 17 16 15 16 18 18 17 17 17 17 18 19 20 21 22 21 21 20 19 19 20 22 22 22 24 26 25 23 19
36 37 35 33 33 31 28 25 22 19 18 19 18 16 14 13 12 11 11 12 12 10 7 5 4 3 3 2 2 1 1 4 7 8 7 7 7 9 11 13 14 14 14 15 16 17 16 17 18 19 19 18 17 16 14 15 17 19 19 18 18 18 19 20 21 23 23 23 23 24 25 24 21 17
37 37 36 34 33 30 27 23 22 22 22 22 20 17 16 16 15 14 14 13 11 8 6 6 6 4 3 3 3 1 3 5 6 6 5 6 8 11 12 12 12 12 13 15 17 17 17 18 19 20 20 21 19 17 15 13 13 15 18 18 18 20 21 21 22 23 23 23 22 21 21 22 21 17
38 36 33 30 28 27 26 25 24 25 25 23 20 18 18 19 17 16 15 13 9 7 6 7 6 5 4 4 2 3 4 4 5 5 6 7 9 9 9 9 10 11 13 15 16 16 16 18 18 17 16 16 13 11 13 13 11 13 17 19 20 21 21 20 20 20 20 19 18 18 18 20 20 18
30 35 32 28 27 26 26 26 25 25 24 22 20 19 20 20 18 16 14 11 7 7 7 6 6 5 4 2 3 3 4 5 6 6 6 6 6 6 8 10 11 13 14 14 15 16 16 17 18 16 13 9 5 6 12 17 18 16 15 17 19 19 18 18 19 20 19 18 17 17 16 18 21 22
13 22 25 26 27 26 25 25 25 25 24 22 21 20 19 19 17 15 12 10 9 8 8 6 5 4 2 2 3 3 4 5 5 4 5 5 6 8 9 10 12 13 13 14 15 15 16 17 17 16 13 9 5 5 11 19 23 22 17 16 18 17 15 16 18 20 19 19 18 17 17 19 22 22
11 15 19 23 26 25 24 24 24 23 23 24 23 20 19 19 17 15 14 13 11 9 7 7 6 3 2 2 3 3 4 4 4 5 6 6 7 8 8 9 12 13 13 14 15 16 17 18 17 17 16 14 12 13 16 20 23 22 17 13 13 14 14 15 16 17 18 18 17 18 20 20 19 15
14 14 15 18 23 26 25 24 23 23 23 23 20 19 21 21 19 17 16 13 9 7 8 8 6 4 4 4 4 4 5 6 6 5 6 7 7 7 7 10 12 13 13 15 16 17 18 18 17 18 18 17 17 19 19 19 19 20 17 13 12 13 14 14 14 14 14 14 16 19 21 20 17 12
17 16 14 15 19 24 24 23 23 22 21 19 17 19 22 22 19 17 14 9 8 9 9 8 7 7 6 4 4 4 5 6 5 5 6 6 6 7 9 11 13 13 13 14 16 17 18 18 18 17 17 17 17 16 14 12 14 18 19 16 13 13 13 13 12 11 11 12 15 17 17 16 14 11
20 18 17 18 21 24 24 23 21 19 17 17 17 19 21 20 17 14 11 10 11 11 9 8 8 6 4 4 5 5 5 5 5 4 5 5 7 10 11 11 12 13 13 14 16 17 18 18 18 17 17 17 15 13 11 11 13 17 19 15 12 13 14 13 10 9 10 13 14 14 12 10 9 9
22 21 21 22 23 23 21 19 17 16 16 18 19 18 18 16 14 12 12 13 13 11 8 8 6 3 2 4 5 4 3 3 3 3 4 6 8 10 11 11 11 13 13 14 16 17 18 19 19 18 17 16 14 12 12 13 15 17 17 15 13 14 13 10 7 8 10 11 11 10 8 7 6 6
23 23 23 21 19 18 17 15 15 17 19 20 19 17 15 13 12 11 13 14 13 11 9 7 4 2 4 5 4 2 3 4 4 3 4 6 7 8 9 10 11 12 13 15 16 18 19 19 19 18 16 16 15 13 13 14 15 15 15 15 15 14 9 6 5 7 8 8 9 10 11 11 10 9
19 17 17 18 18 18 18 17 18 20 20 19 16 14 14 14 15 15 15 15 13 11 8 6 4 5 6 5 4 4 5 4 4 4 5 7 8 8 8 9 10 12 14 15 16 18 19 19 19 18 17 16 15 13 11 12 12 12 13 14 14 10 5 2 4 6 6 7 9 10 11 12 13 14
Wind_Direction
125 120 118 114 106 102 104 105 103 110 121 123 126 154 163 157 144 126 117 96 124 139 140 140 146 125 95 93 92 62 44 52 65 61 54 58 61 55 50 47 44 40 36 35 31 24 23 23 18 14 13 13 12 9 6 6 5 5 4 3 1 359 357 353 349 344 338 333 328 323 319 317 316 314
125 124 121 116 111 106 102 100 96 93 96 98 90 110 156 159 149 138 133 100 114 127 134 145 149 142 124 112 105 72 47 51 61 60 53 54 57 53 49 46 41 35 32 30 23 17 17 18 15 13 12 13 12 8 3 359 357 358 360 1 1 359 358 356 354 351 346 341 335 330 324 318 314 310
128 128 125 121 115 109 106 99 95 94 95 100 91 89 135 157 152 139 129 111 118 125 125 134 143 146 147 139 103 66 48 41 46 47 43 46 51 48 44 40 35 30 26 22 14 9 9 14 16 18 18 19 18 14 9 3 356 355 358 360 359 357 357 358 357 354 350 345 341 337 333 328 322 316
131 126 120 119 116 114 111 103 99 98 97 102 103 96 112 138 145 139 128 120 124 127 127 133 139 145 157 164 127 66 60 41 25 6 351 3 22 32 31 29 25 23 21 15 8 4 2 7 14 15 13 16 17 14 10 7 3 1 1 0 356 355 358 360 357 354 351 348 344 340 338 335 330 326
129 124 121 120 119 116 113 111 110 105 103 111 119 113 112 122 136 144 137 132 130 129 138 144 140 143 167 180 173 76 49 48 15 308 297 303 320 346 16 22 15 15 17 10 5 1 356 359 9 10 8 10 12 10 5 1 1 1 0 359 356 356 360 0 357 355 353 350 347 343 340 337 335 331
133 125 121 121 123 118 115 118 111 100 107 127 132 127 121 119 132 147 144 139 138 142 151 152 143 145 166 178 185 211 360 29 38 315 287 280 283 322 17 23 18 15 10 3 2 359 351 354 4 5 4 4 4 3 359 351 348 348 348 352 356 355 355 356 356 356 355 352 348 343 339 337 335 334
142 135 126 126 128 125 122 118 104 95 102 115 132 135 126 120 127 137 140 138 142 155 162 163 162 158 161 178 200 222 253 341 41 56 358 289 279 39 42 37 32 24 11 3 2 358 350 351 359 0 358 358 356 355 352 345 337 333 333 341 348 349 347 350 352 354 354 353 350 344 338 334 332 332
149 147 143 142 139 136 134 126 112 106 100 96 121 141 139 130 125 123 135 147 156 167 169 171 182 186 174 179 209 227 225 230 246 82 90 104 90 67 57 43 31 20 10 4 359 355 354 353 355 355 352 350 349 344 341 338 331 326 322 327 338 340 339 341 345 348 349 350 350 346 340 335 330 329
156 152 149 155 155 153 145 130 119 119 108 90 99 129 145 149 134 123 136 154 165 173 175 177 189 198 187 176 204 222 213 187 201 197 135 130 108 61 54 38 23 13 4 357 346 344 352 355 351 349 345 340 335 330 330 332 330 324 317 318 327 331 331 333 336 341 344 346 348 347 343 337 332 328
164 158 154 154 160 164 157 146 138 138 140 111 92 106 132 149 147 134 135 145 148 158 166 173 186 194 190 187 202 201 192 180 173 161 143 151 196 336 341 352 10 11 2 348 333 330 340 348 341 334 330 325 322 323 328 333 334 330 322 319 321 323 324 326 329 335 339 342 346 345 343 339 334 329
162 165 173 170 167 170 165 165 169 158 160 156 109 106 128 144 148 145 146 146 137 135 148 164 181 192 198 220 232 202 184 179 180 188 206 234 265 304 315 321 342 357 351 326 320 323 326 325 320 318 319 320 322 327 332 334 334 334 330 325 322 320 320 322 325 330 335 341 345 344 344 344 340 334
169 176 185 182 178 179 175 180 198 199 192 194 177 139 140 148 151 156 173 177 151 125 150 173 194 218 229 237 239 232 217 195 191 217 243 255 272 288 305 328 338 338 324 313 313 315 318 319 319 323 327 332 337 335 329 329 334 338 338 334 329 325 322 321 323 327 333 340 342 341 344 351 351 344
183 189 193 191 187 186 187 191 200 210 218 222 224 224 202 185 182 184 198 202 197 212 238 247 284 286 280 261 241 235 227 209 204 221 234 233 261 284 296 321 336 326 316 314 313 316 324 329 332 338 344 348 346 338 334 335 334 334 333 331 331 329 325 321 322 326 332 338 337 336 341 353 357 355
195 197 201 203 201 199 199 203 203 206 216 222 227 238 244 240 229 220 219 221 224 241 261 296 335 321 333 348 244 219 195 178 182 182 193 228 315 317 311 320 324 317 318 320 316 320 330 338 339 341 344 345 342 335 332 330 327 327 327 329 333 334 328 323 322 324 329 332 331 330 334 346 356 360
203 202 205 207 209 209 207 208 211 213 215 218 222 229 233 239 239 231 227 224 224 234 245 255 289 197 135 118 140 154 144 141 143 123 74 11 360 351 342 333 317 315 324 326 318 322 335 338 332 334 339 342 344 342 337 335 337 341 344 343 342 339 332 326 323 321 323 326 327 326 327 334 347 356
212 208 208 209 211 214 215 215 216 217 218 221 225 228 228 232 235 233 232 230 225 226 225 220 210 177 147 134 138 143 142 142 130 65 18 7 360 353 350 334 319 321 329 328 319 322 335 338 331 335 344 349 353 355 350 348 351 353 351 347 343 339 335 330 326 321 319 324 328 326 322 325 337 347
219 215 214 213 214 217 221 224 223 224 226 226 227 230 232 235 235 232 232 231 226 217 204 192 182 175 171 165 159 156 154 157 343 343 345 346 340 334 332 324 320 324 332 334 327 326 339 349 345 345 352 350 344 340 337 339 344 347 349 348 346 345 342 340 336 330 326 330 333 329 321 316 324 339
222 219 219 217 217 219 222 222 222 225 224 222 226 232 231 232 232 231 230 228 225 218 209 204 198 189 193 198 193 194 236 304 327 335 337 334 328 325 324 319 321 326 330 333 334 334 344 350 346 342 341 334 327 326 329 335 340 343 346 350 353 355 355 354 352 346 341 339 338 336 326 311 310 328
221 218 220 222 223 225 223 218 216 220 221 222 225 225 220 221 226 228 228 227 227 227 226 227 221 204 198 201 204 231 295 319 332 337 332 326 323 325 328 328 333 339 335 329 330 333 337 341 340 336 334 330 326 326 329 334 338 340 344 350 357 2 5 4 0 357 351 344 338 337 332 313 299 311
232 229 232 236 235 229 221 217 218 222 224 222 214 208 211 218 218 214 211 210 218 223 220 216 207 195 188 190 213 283 317 325 329 329 326 325 334 342 346 347 350 353 347 336 331 329 330 336 337 332 330 328 326 327 332 336 336 336 342 349 353 358 2 1 358 354 349 343 339 338 337 325 297 293
238 238 238 236 233 227 221 225 234 233 226 217 205 199 203 206 199 194 190 183 183 186 182 179 182 186 194 232 297 317 324 329 331 335 340 348 356 359 357 352 348 346 343 338 335 333 331 333 335 332 327 325 326 329 333 336 333 329 332 336 338 341 346 349 349 347 344 343 341 341 344 342 321 300
233 233 229 227 232 236 234 240 250 241 225 213 204 201 198 193 189 190 188 181 178 178 178 183 193 211 260 303 329 343 350 352 350 356 2 359 359 3 0 348 339 336 335 333 336 337 334 335 339 339 334 331 331 331 328 327 325 321 321 323 325 328 334 340 343 344 346 345 342 341 346 348 344 333
234 232 229 231 243 251 248 246 244 234 222 211 208 205 196 190 190 188 186 184 182 180 181 187 196 220 299 346 17 25 17 2 351 354 357 352 353 355 347 340 336 334 332 333 334 336 337 339 344 347 345 340 330 323 326 327 326 326 327 327 327 330 335 339 342 345 347 346 344 345 348 348 347 343
236 237 239 243 250 252 247 240 232 222 213 208 207 202 194 191 185 173 169 169 167 163 158 148 119 75 50 36 29 9 340 329 331 340 346 346 342 324 314 324 331 325 320 328 333 336 338 337 338 341 342 334 315 321 329 331 331 334 336 334 334 336 338 338 341 343 345 347 349 350 347 345 344 341
237 241 245 246 246 240 229 219 217 212 206 203 201 196 194 191 178 166 160 155 149 144 131 114 98 76 47 14 354 328 312 308 312 329 355 360 351 329 314 319 325 323 324 330 334 336 338 338 338 338 337 329 318 322 327 330 331 333 333 332 334 336 336 337 338 341 346 350 350 346 343 342 341 339
236 236 235 231 226 216 202 200 208 208 202 196 191 189 191 186 174 166 157 150 150 149 137 130 123 94 42 17 22 28 247 235 263 350 12 13 5 348 330 330 339 341 338 335 333 335 338 341 341 339 336 329 323 323 325 326 327 328 328 329 331 332 334 336 337 340 345 346 342 340 339 340 341 340
223 216 206 196 188 183 182 190 198 197 190 184 178 176 176 171 165 161 157 156 161 160 154 151 134 92 81 96 102 102 103 99 56 29 26 28 37 39 16 348 345 344 338 334 333 335 337 336 335 335 332 326 323 324 324 321 320 322 324 325 326 328 334 336 335 337 340 339 338 336 334 334 336 337
209 197 186 180 176 173 175 179 179 175 169 164 160 159 159 158 160 163 167 171 171 167 166 158 126 109 117 125 112 89 71 58 42 29 18 8 2 353 333 323 326 330 332 335 337 338 336 333 332 333 332 328 324 321 316 314 316 319 321 322 323 326 330 332 332 333 334 334 335 333 332 333 334 332
197 187 184 186 186 179 172 170 169 165 160 154 151 152 154 154 158 163 166 168 165 159 151 142 132 128 130 127 98 55 21 345 340 338 332 326 321 315 310 309 312 319 328 336 339 337 334 333 333 334 333 331 326 319 314 312 313 315 317 318 319 321 323 326 327 327 328 330 329 328 331 334 333 330
184 183 186 187 184 177 174 177 178 174 170 164 151 147 151 153 152 153 157 160 157 147 139 141 142 135 125 111 79 24 333 325 337 340 333 331 331 328 323 319 320 326 335 341 342 338 334 333 335 334 333 331 326 321 317 315 312 312 315 315 314 315 318 321 321 322 324 325 324 324 327 329 328 327
182 185 185 181 180 179 178 180 179 173 167 162 151 150 156 157 154 154 157 162 161 155 153 154 152 148 147 117 29 5 346 350 353 345 338 338 339 340 339 339 339 340 339 339 337 333 327 327 330 333 333 330 326 322 320 316 310 309 312 313 311 309 312 316 318 320 323 323 322 324 325 324 323 323
178 179 178 175 174 175 173 171 168 164 160 156 154 156 157 156 159 165 174 182 183 178 174 170 168 179 217 328 37 11 354 356 349 338 337 342 347 350 351 349 346 341 336 332 329 326 321 321 326 332 332 328 324 321 318 314 310 309 310 313 313 309 311 315 317 318 322 324 323 323 322 320 318 319
174 171 171 170 169 170 169 164 160 157 153 152 156 161 163 166 174 181 186 187 183 181 184 186 188 188 149 99 87 37 342 351 345 338 339 344 349 352 355 355 349 342 335 330 329 327 324 324 327 329 328 325 324 323 317 310 310 313 314 315 315 314 314 318 319 319 322 324 322 322 321 321 320 321
176 171 170 170 170 168 163 157 154 155 158 159 162 167 172 176 178 178 179 179 176 178 187 184 165 152 129 113 126 138 7 350 349 349 351 352 353 356 357 350 338 329 328 329 329 327 327 330 330 330 331 333 333 334 329 315 311 316 319 318 319 320 319 320 320 318 318 319 319 320 322 324 326 327
174 171 171 171 170 166 162 161 165 169 170 167 165 168 177 183 180 174 175 178 177 177 173 158 150 148 136 133 135 76 360 354 360 2 358 355 354 353 349 335 320 317 322 324 323 326 330 333 333 334 336 337 335 336 340 336 322 318 318 316 318 321 320 320 318 315 314 317 318 319 320 323 326 330
173 171 172 172 170 168 169 173 174 172 168 166 166 168 173 177 177 174 172 174 174 171 163 156 153 151 145 138 99 17 5 2 359 350 345 351 356 354 346 332 321 321 322 319 320 328 334 334 334 332 330 330 329 326 330 333 327 316 313 315 319 323 323 323 322 320 318 318 319 318 316 316 318 322
175 172 176 179 179 177 175 173 171 169 168 171 176 177 173 169 170 171 172 172 167 158 152 150 149 146 138 101 40 27 16 354 344 346 360 12 13 7 355 340 327 322 320 320 326 333 336 333 332 328 321 319 321 311 314 320 323 321 318 317 320 326 328 326 324 324 322 321 321 319 314 311 311 313
177 172 177 180 178 175 170 167 167 167 171 179 186 186 179 171 168 169 169 167 162 157 154 150 142 135 110 33 30 29 9 356 357 29 49 38 20 12 360 338 323 320 323 326 330 336 337 332 328 325 319 311 305 305 311 317 321 326 330 327 322 324 329 326 322 323 323 322 319 314 310 309 309 312
195 183 182 178 173 169 166 167 170 176 183 188 191 189 179 170 166 165 163 160 160 163 166 161 145 119 69 61 68 48 33 47 74 78 57 33 20 14 357 328 318 323 326 328 331 337 338 334 330 327 321 310 303 306 307 307 311 320 336 344 329 320 323 324 322 321 322 320 315 311 312 314 317 326
193 193 191 183 176 171 169 170 175 178 179 179 181 181 174 166 161 161 159 155 153 151 149 150 146 126 110 108 90 69 73 82 79 60 39 28 18 2 333 316 317 322 323 324 329 334 336 335 334 331 323 316 314 314 311 307 310 320 336 349 340 326 322 321 321 322 324 320 317 318 322 325 333 352
174 177 185 186 175 166 161 160 162 162 161 160 160 162 163 161 159 159 156 148 142 140 134 135 138 128 115 96 66 61 73 66 46 31 28 20 354 327 316 315 320 323 322 322 326 332 336 336 336 334 329 325 324 322 316 311 312 318 328 340 344 336 328 321 319 324 330 329 326 328 332 334 339 356
162 167 177 177 165 154 149 150 153 156 161 164 160 156 158 159 159 156 148 138 137 138 133 128 130 124 96 59 47 46 44 34 26 26 18 349 324 320 322 324 326 328 326 325 328 333 337 340 341 340 336 333 330 321 307 301 303 310 320 333 342 336 326 318 319 330 340 343 343 343 343 340 339 350
152 156 162 160 154 149 147 150 156 162 168 170 166 160 158 156 155 154 150 144 141 141 140 136 131 109 64 70 64 42 34 58 71 50 8 342 330 327 329 332 336 337 334 333 335 338 340 344 345 343 338 336 332 317 301 299 303 307 314 324 332 329 320 311 320 343 353 360 7 15 17 8 355 348
150 148 150 151 150 153 160 166 169 169 167 165 163 162 162 159 158 161 159 152 147 149 151 148 133 94 92 91 82 91 117 106 89 56 19 356 338 328 328 335 343 345 343 340 339 339 342 346 348 344 338 335 331 320 307 306 309 311 316 323 329 328 319 308 333 358 8 20 36 48 51 47 38 23
147 144 151 158 161 166 172 174 169 164 161 157 155 161 166 160 152 150 152 151 150 152 151 142 123 110 104 94 92 121 124 100 70 52 21 349 333 331 338 345 346 346 347 345 339 337 341 346 348 346 342 338 338 333 321 314 314 315 321 328 330 327 315 315 355 9 22 43 58 63 59 49 40 30